NOAA 16 DEB, 42362

Orbit data source: Space-Track

NOAA 16 DEB, 42362 is space debris in SSO originally from a launch on Thu, 21 Sep 2000 UTC launched from the Air Force Western Test Range (AFWTR). Debris objects in space refer to the collection of defunct objects orbiting the Earth. Examples of debris include non-operational satellites, rocket bodies, and fragments generated from explosions, collisions, or faulty payload assembly.

Loading next visibility...
Identifier
42362, 2000-055RE
Orbit
SSO
Country
Flag of USUS
Related business
Manufacturer
Unknown
Mission
Spacecraft
Bus & Motor
Unknown
Mass
Unknown
Launch date (UTC)
2000-09-21 (26 years ago)
Launch vehicle
Unknown
Launch site
Air Force Western Test Range (AFWTR)
Object type
Payload
Rocket body
Debris
Shape & HBR
Unknown shape, 0.1 m
Radar Cross Section
Small (<0.1 m²)

Expand to show TLE details & history
Last TLE update: 2 days ago

TLE from 2 days ago
0 NOAA 16 DEB
1 42362U 00055RE  26171.17182577  .00004622  00000-0  23692-2 0  9990
2 42362  98.8493 133.4907 0090837 167.1330 193.2191 14.13789041528161
Epoch: 2026-06-20T04:07Z
TLE epoch observation values (Epoch: 2026-06-20T04:07:25.746Z)
Latitude
-0.00001°
Longitude
163.24316°
Altitude
913.267 km
Speed
7.363 km/s
True Right ascension
08h 53m 57s
True Declination
0° 00' 00"
Sunlit
Object was in daylight at epoch
Visualization orbit readout
Latitude
Unknown
Longitude
Unknown
Altitude
Unknown
Speed
Unknown
Apparent Right ascension
Unknown
Apparent Declination
Unknown
Sunlit
N/A
Visualization observer readout
Local Sidereal Time
21:40:32
Azimuth
Unknown
Elevation
Unknown
Doppler factor
Unknown
Orbital elements
Apogee altitude
909.208 km
Perigee altitude
778.008 km
Semi-major axis
7,221.745 km
Eccentricity
0.00908
Inclination
98.8493°
RAAN
133.4907°
Arg. of periapsis
167.133°
True anomaly
192.98367°
Mean anomaly
193.2191°
Eccentric anomaly
193.10113°
Mean motion
3.53655 °/min
Orbital period
101.79 mins
BSTAR
0.0023692
Loading maneuver chart data...
Computing Atmospheric mass density...
Loading historical data...
Loading historical data...
Loading historical data...
Loading historical data...
Loading historical data...
Loading historical data...
Loading historical data...

Documentation

Showing up to 5 results
|